| time (UTC) | temp F | wind direction | speed MPH | gust MPH | rain 1hr in | rain 24hr in | rain mn in | humidity % | barometer mb |
| 20260507051150 | 51 | 253 | 0.0 | 6.0 | 0.00 | 0.00 | 0.00 | 92 | 1012.3 |
| 20260507050647 | 51 | 285 | 3.0 | 8.0 | 0.00 | 0.00 | 0.00 | 91 | 1012.3 |
| 20260507050144 | 51 | 232 | 2.0 | 7.0 | 0.00 | 0.00 | 0.00 | 91 | 1012.2 |
| 20260507045641 | 51 | 29 | 4.0 | 8.0 | 0.00 | 0.00 | 0.00 | 92 | 1012.3 |
| 20260507045137 | 51 | 28 | 0.0 | 5.0 | 0.00 | 0.00 | 0.00 | 92 | 1012.0 |
| 20260507044635 | 51 | 84 | 1.0 | 6.0 | 0.00 | 0.00 | 0.00 | 91 | 1012.2 |
| 20260507044131 | 51 | 54 | 3.0 | 4.0 | 0.00 | 0.00 | 0.00 | 92 | 1012.0 |
| 20260507043627 | 51 | 104 | 2.0 | 4.0 | 0.00 | 0.00 | 0.00 | 92 | 1011.9 |
| 20260507043124 | 51 | 52 | 0.0 | 8.0 | 0.00 | 0.00 | 0.00 | 91 | 1012.2 |
| 20260507042621 | 52 | 71 | 4.0 | 7.0 | 0.00 | 0.00 | 0.00 | 91 | 1012.0 |
| 20260507042116 | 51 | 63 | 2.0 | 4.0 | 0.00 | 0.00 | 0.00 | 91 | 1012.0 |
| 20260507041613 | 51 | 268 | 1.0 | 6.0 | 0.00 | 0.00 | 0.00 | 91 | 1011.8 |
| 20260507041110 | 52 | 306 | 2.0 | 5.0 | 0.00 | 0.00 | 0.00 | 91 | 1011.8 |
| 20260507040607 | 52 | 310 | 3.0 | 5.0 | 0.00 | 0.00 | 0.00 | 91 | 1011.7 |
| 20260507035558 | 52 | 338 | 2.0 | 3.0 | 0.00 | 0.00 | 0.00 | 91 | 1011.5 |
| 20260507035055 | 52 | 117 | 1.0 | 4.0 | 0.00 | 0.00 | 0.00 | 90 | 1011.6 |
| 20260507034552 | 52 | 68 | 3.0 | 6.0 | 0.00 | 0.00 | 0.00 | 90 | 1011.6 |
| 20260507034050 | 53 | 136 | 2.0 | 7.0 | 0.00 | 0.00 | 0.00 | 90 | 1011.6 |
| 20260507033548 | 53 | 312 | 3.0 | 14.0 | 0.00 | 0.00 | 0.00 | 89 | 1011.4 |
| 20260507033045 | 53 | 355 | 2.0 | 6.0 | 0.00 | 0.00 | 0.00 | 89 | 1011.4 |
| 20260507032542 | 53 | 332 | 2.0 | 7.0 | 0.00 | 0.00 | 0.00 | 89 | 1011.4 |
| 20260507032038 | 53 | 280 | 3.0 | 6.0 | 0.00 | 0.00 | 0.00 | 89 | 1011.2 |
| 20260507031534 | 54 | 69 | 4.0 | 5.0 | 0.00 | 0.00 | 0.00 | 88 | 1011.1 |
| 20260507031032 | 54 | 56 | 0.0 | 7.0 | 0.00 | 0.00 | 0.00 | 88 | 1011.1 |
| 20260507030528 | 55 | 247 | 1.0 | 5.0 | 0.00 | 0.00 | 0.00 | 87 | 1011.0 |
| 20260507030026 | 55 | 294 | 5.0 | 6.0 | 0.00 | 0.00 | 0.00 | 87 | 1011.0 |
| 20260507025523 | 55 | 26 | 1.0 | 7.0 | 0.00 | 0.00 | 0.00 | 86 | 1011.0 |
| 20260507025020 | 55 | 335 | 2.0 | 6.0 | 0.00 | 0.00 | 0.00 | 86 | 1011.0 |
| 20260507024518 | 56 | 268 | 3.0 | 5.0 | 0.00 | 0.00 | 0.00 | 86 | 1011.0 |
| 20260507024014 | 56 | 312 | 1.0 | 5.0 | 0.00 | 0.00 | 0.00 | 85 | 1011.0 |
| 20260507023510 | 57 | 119 | 2.0 | 7.0 | 0.00 | 0.00 | 0.00 | 84 | 1011.0 |
| 20260507023003 | 57 | 271 | 3.0 | 5.0 | 0.00 | 0.00 | 0.00 | 83 | 1011.1 |
| 20260507022459 | 57 | 69 | 1.0 | 3.0 | 0.00 | 0.00 | 0.00 | 84 | 1011.1 |
| 20260507021954 | 57 | 5 | 3.0 | 6.0 | 0.00 | 0.00 | 0.00 | 82 | 1011.1 |
| 20260507021450 | 58 | 338 | 4.0 | 6.0 | 0.00 | 0.00 | 0.00 | 82 | 1011.1 |
| 20260507020947 | 58 | 23 | 1.0 | 10.0 | 0.00 | 0.00 | 0.00 | 82 | 1011.0 |
| 20260507020444 | 58 | 299 | 2.0 | 7.0 | 0.00 | 0.00 | 0.00 | 81 | 1011.1 |
| 20260507015941 | 59 | 333 | 6.0 | 9.0 | 0.00 | 0.00 | 0.00 | 80 | 1011.0 |
| 20260507015440 | 59 | 321 | 1.0 | 4.0 | 0.00 | 0.00 | 0.00 | 80 | 1011.2 |
| 20260507014936 | 60 | 0 | 3.0 | 12.0 | 0.00 | 0.00 | 0.00 | 79 | 1011.0 |
| 20260507014433 | 60 | 331 | 2.0 | 6.0 | 0.00 | 0.00 | 0.00 | 80 | 1011.0 |
| 20260507013929 | 60 | 275 | 3.0 | 6.0 | 0.00 | 0.00 | 0.00 | 79 | 1011.2 |
| 20260507013426 | 60 | 305 | 2.0 | 5.0 | 0.00 | 0.00 | 0.00 | 80 | 1011.0 |
| 20260507012924 | 60 | 338 | 5.0 | 9.0 | 0.00 | 0.00 | 0.00 | 79 | 1011.1 |
| 20260507012420 | 60 | 160 | 0.0 | 7.0 | 0.00 | 0.00 | 0.00 | 80 | 1010.9 |
| 20260507011916 | 60 | 331 | 5.0 | 8.0 | 0.00 | 0.00 | 0.00 | 78 | 1011.1 |
| 20260507011413 | 60 | 150 | 3.0 | 7.0 | 0.00 | 0.00 | 0.00 | 78 | 1011.2 |
| 20260507010908 | 61 | 289 | 2.0 | 11.0 | 0.00 | 0.00 | 0.00 | 77 | 1010.9 |
| 20260507010403 | 62 | 86 | 2.0 | 8.0 | 0.00 | 0.00 | 0.00 | 76 | 1011.0 |
| 20260507005901 | 62 | 284 | 2.0 | 6.0 | 0.00 | 0.00 | 0.00 | 76 | 1011.1 |
| 20260507005357 | 62 | 238 | 2.0 | 5.0 | 0.00 | 0.00 | 0.00 | 76 | 1011.2 |
| 20260507004854 | 62 | 333 | 4.0 | 11.0 | 0.00 | 0.00 | 0.00 | 75 | 1011.1 |
| 20260507004351 | 62 | 278 | 1.0 | 13.0 | 0.00 | 0.00 | 0.00 | 75 | 1011.0 |
| 20260507003850 | 63 | 62 | 2.0 | 7.0 | 0.00 | 0.00 | 0.00 | 75 | 1010.9 |
| 20260507003344 | 63 | 306 | 2.0 | 6.0 | 0.00 | 0.00 | 0.00 | 74 | 1011.0 |
| 20260507002839 | 64 | 262 | 3.0 | 4.0 | 0.00 | 0.00 | 0.00 | 75 | 1011.0 |
| 20260507002335 | 64 | 292 | 3.0 | 7.0 | 0.00 | 0.00 | 0.00 | 74 | 1011.0 |
| 20260507001833 | 64 | 203 | 2.0 | 7.0 | 0.00 | 0.00 | 0.00 | 74 | 1010.8 |
| 20260507001329 | 64 | 297 | 5.0 | 7.0 | 0.00 | 0.00 | 0.00 | 73 | 1011.0 |
| 20260507000826 | 65 | 296 | 1.0 | 7.0 | 0.00 | 0.00 | 0.00 | 74 | 1010.8 |
| 20260507000321 | 65 | 14 | 2.0 | 7.0 | 0.00 | 0.00 | 0.00 | 74 | 1010.9 |
| 20260506235818 | 65 | 198 | 1.0 | 8.0 | 0.00 | 0.00 | 0.00 | 73 | 1010.9 |
| 20260506235314 | 65 | 294 | 3.0 | 7.0 | 0.00 | 0.00 | 0.00 | 72 | 1011.0 |
| 20260506234805 | 66 | 285 | 1.0 | 7.0 | 0.00 | 0.00 | 0.00 | 72 | 1010.8 |
| 20260506234303 | 66 | 274 | 3.0 | 4.0 | 0.00 | 0.00 | 0.00 | 73 | 1010.8 |
| 20260506233800 | 66 | 277 | 3.0 | 8.0 | 0.00 | 0.00 | 0.00 | 72 | 1010.9 |
| 20260506233256 | 67 | 272 | 3.0 | 8.0 | 0.00 | 0.00 | 0.00 | 72 | 1010.9 |
| 20260506232753 | 66 | 289 | 5.0 | 9.0 | 0.00 | 0.00 | 0.00 | 72 | 1010.9 |
| 20260506232248 | 67 | 310 | 5.0 | 9.0 | 0.00 | 0.00 | 0.00 | 71 | 1010.9 |
| 20260506231745 | 68 | 46 | 3.0 | 9.0 | 0.00 | 0.00 | 0.00 | 71 | 1011.0 |
| 20260506231244 | 68 | 329 | 2.0 | 7.0 | 0.00 | 0.00 | 0.00 | 69 | 1011.0 |
| 20260506230740 | 69 | 91 | 2.0 | 4.0 | 0.00 | 0.00 | 0.00 | 71 | 1010.8 |
| 20260506230237 | 69 | 324 | 4.0 | 6.0 | 0.00 | 0.00 | 0.00 | 71 | 1010.8 |
| 20260506225734 | 70 | 314 | 3.0 | 9.0 | 0.00 | 0.00 | 0.00 | 66 | 1010.9 |
| 20260506225231 | 70 | 308 | 2.0 | 5.0 | 0.00 | 0.00 | 0.00 | 68 | 1011.0 |
| 20260506224727 | 71 | 322 | 3.0 | 3.0 | 0.00 | 0.00 | 0.00 | 66 | 1010.8 |
| 20260506224224 | 70 | 266 | 1.0 | 6.0 | 0.00 | 0.00 | 0.00 | 65 | 1010.8 |
| 20260506223720 | 71 | 87 | 3.0 | 5.0 | 0.00 | 0.00 | 0.00 | 63 | 1011.0 |
| 20260506223216 | 71 | 61 | 4.0 | 5.0 | 0.00 | 0.00 | 0.00 | 63 | 1011.0 |
| 20260506222714 | 71 | 285 | 2.0 | 5.0 | 0.00 | 0.00 | 0.00 | 66 | 1011.0 |
| 20260506222209 | 69 | 226 | 0.0 | 7.0 | 0.00 | 0.00 | 0.00 | 67 | 1011.0 |
| 20260506221707 | 71 | 306 | 2.0 | 6.0 | 0.00 | 0.00 | 0.00 | 67 | 1011.2 |
| 20260506221205 | 71 | 281 | 5.0 | 6.0 | 0.00 | 0.00 | 0.00 | 66 | 1011.2 |
| 20260506220702 | 71 | 165 | 3.0 | 6.0 | 0.00 | 0.00 | 0.00 | 65 | 1011.2 |
| 20260506220157 | 72 | 9 | 2.0 | 5.0 | 0.00 | 0.00 | 0.00 | 65 | 1011.3 |
| 20260506215653 | 71 | 284 | 0.0 | 4.0 | 0.00 | 0.00 | 0.00 | 65 | 1011.3 |
| 20260506215148 | 71 | 24 | 3.0 | 6.0 | 0.00 | 0.00 | 0.00 | 64 | 1011.3 |
| 20260506214646 | 71 | 354 | 2.0 | 4.0 | 0.00 | 0.00 | 0.00 | 65 | 1011.3 |
| 20260506214143 | 72 | 268 | 2.0 | 5.0 | 0.00 | 0.00 | 0.00 | 64 | 1011.3 |
| 20260506213642 | 70 | 289 | 2.0 | 3.0 | 0.00 | 0.00 | 0.00 | 71 | 1011.2 |
| 20260506213139 | 69 | 326 | 2.0 | 5.0 | 0.00 | 0.00 | 0.00 | 69 | 1011.3 |
| 20260506212636 | 68 | 271 | 1.0 | 2.0 | 0.00 | 0.00 | 0.00 | 71 | 1011.3 |
| 20260506212130 | 68 | 259 | 2.0 | 4.0 | 0.00 | 0.00 | 0.00 | 69 | 1011.3 |
| 20260506211626 | 68 | 164 | 3.0 | 5.0 | 0.00 | 0.00 | 0.00 | 71 | 1011.2 |
| 20260506211123 | 70 | 105 | 2.0 | 3.0 | 0.00 | 0.00 | 0.00 | 70 | 1011.2 |
| 20260506210620 | 69 | 255 | 2.0 | 8.0 | 0.00 | 0.00 | 0.00 | 71 | 1011.2 |
| 20260506210117 | 68 | 306 | 2.0 | 5.0 | 0.00 | 0.00 | 0.00 | 73 | 1011.2 |
| 20260506205614 | 67 | 186 | 1.0 | 3.0 | 0.00 | 0.00 | 0.00 | 71 | 1011.4 |
| 20260506205108 | 67 | 269 | 2.0 | 5.0 | 0.00 | 0.00 | 0.00 | 73 | 1011.6 |
| 20260506204607 | 65 | 113 | 1.0 | 3.0 | 0.00 | 0.00 | 0.00 | 75 | 1011.6 |
| 20260506204103 | 65 | 112 | 3.0 | 5.0 | 0.00 | 0.00 | 0.00 | 76 | 1011.5 |
| 20260506203602 | 65 | 107 | 1.0 | 5.0 | 0.00 | 0.00 | 0.00 | 77 | 1011.5 |
| 20260506203058 | 65 | 321 | 1.0 | 5.0 | 0.00 | 0.00 | 0.00 | 76 | 1011.9 |
| 20260506202556 | 66 | 174 | 2.0 | 5.0 | 0.00 | 0.00 | 0.00 | 74 | 1011.7 |
| 20260506202052 | 65 | 110 | 0.0 | 3.0 | 0.00 | 0.00 | 0.00 | 79 | 1011.6 |
| 20260506201549 | 65 | 126 | 1.0 | 4.0 | 0.00 | 0.00 | 0.00 | 80 | 1011.6 |
| 20260506201046 | 65 | 17 | 1.0 | 3.0 | 0.00 | 0.00 | 0.00 | 79 | 1012.0 |
| 20260506200542 | 65 | 330 | 5.0 | 11.0 | 0.00 | 0.00 | 0.00 | 77 | 1011.7 |
| 20260506200039 | 65 | 301 | 0.0 | 6.0 | 0.00 | 0.00 | 0.00 | 78 | 1011.7 |
| 20260506195536 | 65 | 3 | 2.0 | 4.0 | 0.00 | 0.00 | 0.00 | 78 | 1011.8 |
| 20260506195032 | 65 | 273 | 1.0 | 5.0 | 0.00 | 0.00 | 0.00 | 80 | 1011.7 |
| 20260506194530 | 64 | 289 | 1.0 | 5.0 | 0.00 | 0.00 | 0.00 | 79 | 1011.7 |
| 20260506194026 | 64 | 112 | 5.0 | 7.0 | 0.00 | 0.00 | 0.00 | 78 | 1011.9 |
| 20260506193523 | 65 | 140 | 1.0 | 7.0 | 0.00 | 0.00 | 0.00 | 79 | 1011.8 |
| 20260506193021 | 64 | 303 | 6.0 | 10.0 | 0.00 | 0.00 | 0.00 | 78 | 1011.8 |
| 20260506192517 | 62 | 337 | 2.0 | 11.0 | 0.00 | 0.00 | 0.00 | 81 | 1011.8 |
| 20260506192013 | 62 | 139 | 5.0 | 10.0 | 0.00 | 0.00 | 0.00 | 82 | 1011.7 |
| 20260506191510 | 64 | 138 | 2.0 | 5.0 | 0.00 | 0.00 | 0.00 | 78 | 1011.9 |
| 20260506191006 | 62 | 334 | 3.0 | 9.0 | 0.00 | 0.00 | 0.00 | 81 | 1011.8 |
| 20260506190503 | 63 | 122 | 2.0 | 6.0 | 0.00 | 0.00 | 0.00 | 83 | 1011.7 |
| 20260506190000 | 63 | 346 | 1.0 | 5.0 | 0.00 | 0.00 | 0.00 | 82 | 1012.0 |
| 20260506185458 | 62 | 120 | 0.0 | 4.0 | 0.00 | 0.00 | 0.00 | 85 | 1012.0 |
| 20260506184954 | 61 | 326 | 2.0 | 10.0 | 0.00 | 0.00 | 0.00 | 85 | 1011.9 |
| 20260506184451 | 61 | 347 | 7.0 | 11.0 | 0.00 | 0.00 | 0.00 | 83 | 1012.2 |
| 20260506183948 | 61 | 320 | 0.0 | 3.0 | 0.00 | 0.00 | 0.00 | 86 | 1011.9 |
| 20260506183444 | 60 | 345 | 2.0 | 6.0 | 0.00 | 0.00 | 0.00 | 87 | 1011.9 |
| 20260506182941 | 60 | 337 | 1.0 | 6.0 | 0.00 | 0.00 | 0.00 | 85 | 1011.9 |
| 20260506182438 | 60 | 359 | 0.0 | 5.0 | 0.00 | 0.00 | 0.00 | 85 | 1011.9 |
| 20260506181935 | 60 | 16 | 2.0 | 5.0 | 0.00 | 0.00 | 0.00 | 85 | 1011.9 |
| 20260506181433 | 61 | 331 | 1.0 | 4.0 | 0.00 | 0.00 | 0.00 | 84 | 1011.9 |
| 20260506180930 | 60 | 305 | 2.0 | 6.0 | 0.00 | 0.00 | 0.00 | 86 | 1011.9 |
| 20260506180426 | 59 | 181 | 4.0 | 10.0 | 0.00 | 0.00 | 0.00 | 86 | 1011.7 |
| 20260506175923 | 59 | 106 | 3.0 | 6.0 | 0.00 | 0.00 | 0.00 | 84 | 1011.7 |
| 20260506175420 | 60 | 339 | 3.0 | 4.0 | 0.00 | 0.00 | 0.00 | 86 | 1011.7 |
| 20260506174917 | 59 | 56 | 3.0 | 4.0 | 0.00 | 0.00 | 0.00 | 85 | 1012.1 |
| 20260506174414 | 58 | 329 | 2.0 | 5.0 | 0.00 | 0.00 | 0.00 | 88 | 1012.1 |
| 20260506173911 | 58 | 28 | 2.0 | 4.0 | 0.00 | 0.00 | 0.00 | 88 | 1012.1 |
| 20260506173408 | 58 | 326 | 2.0 | 3.0 | 0.00 | 0.00 | 0.00 | 86 | 1012.1 |
| 20260506172900 | 57 | 284 | 2.0 | 3.0 | 0.00 | 0.00 | 0.00 | 89 | 1011.8 |
| 20260506172356 | 56 | 120 | 4.0 | 5.0 | 0.00 | 0.00 | 0.00 | 90 | 1012.1 |
| 20260506171853 | 56 | 337 | 3.0 | 8.0 | 0.00 | 0.00 | 0.00 | 90 | 1012.0 |
| 20260506171351 | 57 | 355 | 0.0 | 3.0 | 0.00 | 0.00 | 0.00 | 90 | 1011.8 |
| 20260506170848 | 56 | 350 | 1.0 | 4.0 | 0.00 | 0.00 | 0.00 | 90 | 1011.8 |
| 20260506170343 | 56 | 89 | 0.0 | 2.0 | 0.00 | 0.00 | 0.00 | 91 | 1011.8 |
| 20260506165838 | 55 | 18 | 1.0 | 4.0 | 0.00 | 0.00 | 0.00 | 92 | 1011.9 |
| 20260506165335 | 55 | 144 | 0.0 | 4.0 | 0.00 | 0.00 | 0.00 | 93 | 1011.9 |
| 20260506164831 | 55 | 254 | 3.0 | 5.0 | 0.00 | 0.00 | 0.00 | 92 | 1011.8 |
| 20260506164327 | 55 | 48 | 1.0 | 5.0 | 0.00 | 0.00 | 0.00 | 92 | 1012.0 |
| 20260506163819 | 55 | 331 | 0.0 | 4.0 | 0.00 | 0.00 | 0.00 | 92 | 1012.0 |
| 20260506163314 | 55 | 1 | 1.0 | 4.0 | 0.00 | 0.00 | 0.00 | 91 | 1012.0 |
| 20260506162810 | 55 | 18 | 0.0 | 3.0 | 0.00 | 0.00 | 0.00 | 91 | 1011.9 |
| 20260506162308 | 55 | 346 | 2.0 | 6.0 | 0.00 | 0.00 | 0.00 | 92 | 1011.9 |
| 20260506161804 | 55 | 87 | 3.0 | 4.0 | 0.00 | 0.00 | 0.00 | 91 | 1011.8 |
| 20260506161301 | 56 | 40 | 2.0 | 3.0 | 0.00 | 0.00 | 0.00 | 92 | 1011.6 |
| 20260506160754 | 55 | 35 | 2.0 | 7.0 | 0.00 | 0.00 | 0.00 | 91 | 1011.5 |
| 20260506160250 | 55 | 310 | 2.0 | 7.0 | 0.00 | 0.00 | 0.00 | 93 | 1011.3 |
| 20260506155749 | 54 | 48 | 2.0 | 2.0 | 0.00 | 0.00 | 0.00 | 93 | 1011.3 |
| 20260506155245 | 53 | 113 | 2.0 | 4.0 | 0.00 | 0.00 | 0.00 | 93 | 1011.3 |
| 20260506153353 | 53 | 70 | 1.0 | 3.0 | 0.00 | 0.00 | 0.00 | 94 | 1011.7 |
| 20260506152850 | 53 | 29 | 0.0 | 3.0 | 0.00 | 0.00 | 0.00 | 94 | 1011.7 |
| 20260506152347 | 52 | 81 | 0.0 | 4.0 | 0.00 | 0.00 | 0.00 | 95 | 1011.9 |
| 20260506151845 | 52 | 45 | 1.0 | 5.0 | 0.00 | 0.00 | 0.00 | 95 | 1011.8 |
| 20260506151342 | 52 | 269 | 0.0 | 3.0 | 0.00 | 0.00 | 0.00 | 95 | 1012.0 |
| 20260506150839 | 52 | 347 | 3.0 | 10.0 | 0.00 | 0.00 | 0.00 | 95 | 1012.0 |
| 20260506150335 | 51 | 299 | 2.0 | 5.0 | 0.00 | 0.00 | 0.00 | 95 | 1012.2 |
| 20260506145832 | 51 | 284 | 2.0 | 7.0 | 0.00 | 0.00 | 0.00 | 95 | 1012.0 |
| 20260506145329 | 52 | 30 | 3.0 | 4.0 | 0.00 | 0.00 | 0.00 | 95 | 1011.9 |
| 20260506144826 | 52 | 31 | 1.0 | 5.0 | 0.00 | 0.00 | 0.00 | 95 | 1011.9 |
| 20260506144322 | 52 | 39 | 1.0 | 7.0 | 0.00 | 0.00 | 0.00 | 94 | 1011.8 |
| 20260506143821 | 52 | 310 | 2.0 | 6.0 | 0.00 | 0.00 | 0.00 | 95 | 1011.3 |
| 20260506143318 | 52 | 5 | 1.0 | 6.0 | 0.00 | 0.00 | 0.00 | 95 | 1011.4 |
| 20260506142816 | 52 | 335 | 3.0 | 6.0 | 0.00 | 0.00 | 0.00 | 94 | 1011.3 |
| 20260506142313 | 52 | 82 | 1.0 | 3.0 | 0.00 | 0.00 | 0.00 | 94 | 1011.0 |
| 20260506141812 | 52 | 348 | 1.0 | 3.0 | 0.00 | 0.00 | 0.00 | 94 | 1010.9 |
| 20260506141310 | 52 | 91 | 3.0 | 4.0 | 0.00 | 0.00 | 0.00 | 95 | 1010.6 |
| 20260506140807 | 52 | 124 | 4.0 | 6.0 | 0.00 | 0.00 | 0.00 | 96 | 1010.6 |
| 20260506140304 | 51 | 115 | 3.0 | 3.0 | 0.00 | 0.00 | 0.00 | 98 | 1010.6 |
| 20260506135801 | 51 | 22 | 0.0 | 3.0 | 0.00 | 0.00 | 0.00 | 98 | 1010.8 |
| 20260506135257 | 50 | 89 | 3.0 | 3.0 | 0.00 | 0.00 | 0.00 | 99 | 1010.8 |
| 20260506134754 | 50 | 169 | 0.0 | 3.0 | 0.00 | 0.00 | 0.00 | 99 | 1010.5 |
| 20260506134250 | 50 | 101 | 0.0 | 3.0 | 0.00 | 0.00 | 0.00 | 99 | 1010.9 |
| 20260506133747 | 50 | 103 | 0.0 | 3.0 | 0.00 | 0.00 | 0.00 | 99 | 1010.8 |
| 20260506133244 | 51 | 129 | 0.0 | 2.0 | 0.00 | 0.00 | 0.00 | 99 | 1010.9 |
| 20260506132741 | 51 | 89 | 0.0 | 1.0 | 0.00 | 0.00 | 0.00 | 99 | 1010.8 |
| 20260506132238 | 51 | 101 | 0.0 | 3.0 | 0.00 | 0.00 | 0.00 | 99 | 1010.6 |
| 20260506131736 | 51 | 89 | 0.0 | 1.0 | 0.00 | 0.00 | 0.00 | 98 | 1010.6 |
| 20260506131232 | 51 | 101 | 2.0 | 3.0 | 0.00 | 0.00 | 0.00 | 98 | 1010.6 |
| 20260506130729 | 51 | 138 | 0.0 | 2.0 | 0.00 | 0.00 | 0.00 | 98 | 1010.5 |
| 20260506130226 | 51 | 218 | 0.0 | 3.0 | 0.00 | 0.00 | 0.00 | 98 | 1010.3 |
| 20260506125724 | 51 | 136 | 1.0 | 2.0 | 0.00 | 0.00 | 0.00 | 98 | 1010.4 |
| 20260506125222 | 51 | 67 | 1.0 | 2.0 | 0.00 | 0.00 | 0.00 | 98 | 1010.3 |
| 20260506124719 | 51 | 297 | 0.0 | 3.0 | 0.00 | 0.00 | 0.00 | 98 | 1010.6 |
| 20260506124217 | 51 | 83 | 0.0 | 3.0 | 0.00 | 0.00 | 0.00 | 98 | 1010.4 |
| 20260506123714 | 51 | 108 | 0.0 | 2.0 | 0.00 | 0.00 | 0.00 | 98 | 1010.4 |
| 20260506123213 | 51 | 320 | 1.0 | 2.0 | 0.00 | 0.00 | 0.00 | 98 | 1010.6 |
| 20260506122709 | 51 | 344 | 0.0 | 2.0 | 0.00 | 0.00 | 0.00 | 98 | 1010.4 |
| 20260506122207 | 51 | 47 | 0.0 | 2.0 | 0.00 | 0.00 | 0.00 | 98 | 1010.6 |
| 20260506121705 | 51 | 40 | 0.0 | 2.0 | 0.00 | 0.00 | 0.00 | 98 | 1010.5 |
| 20260506121201 | 51 | 89 | 0.0 | 2.0 | 0.00 | 0.00 | 0.00 | 98 | 1010.5 |
| 20260506120659 | 51 | 279 | 0.0 | 3.0 | 0.00 | 0.00 | 0.00 | 98 | 1010.2 |
| 20260506120156 | 51 | 249 | 1.0 | 2.0 | 0.00 | 0.00 | 0.00 | 98 | 1010.5 |
| 20260506115654 | 51 | 317 | 4.0 | 5.0 | 0.00 | 0.00 | 0.00 | 98 | 1010.4 |
| 20260506115152 | 51 | 81 | 3.0 | 4.0 | 0.00 | 0.00 | 0.00 | 98 | 1010.3 |
| 20260506114649 | 51 | 64 | 2.0 | 4.0 | 0.00 | 0.00 | 0.00 | 99 | 1010.2 |
| 20260506114147 | 51 | 283 | 5.0 | 7.0 | 0.00 | 0.00 | 0.00 | 99 | 1010.2 |
| 20260506113645 | 51 | 83 | 2.0 | 3.0 | 0.00 | 0.00 | 0.00 | 99 | 1009.9 |
| 20260506113142 | 51 | 73 | 0.0 | 2.0 | 0.00 | 0.00 | 0.00 | 99 | 1010.0 |
| 20260506112638 | 51 | 294 | 0.0 | 4.0 | 0.00 | 0.00 | 0.00 | 99 | 1009.8 |
| 20260506112136 | 51 | 348 | 0.0 | 3.0 | 0.00 | 0.00 | 0.00 | 99 | 1009.8 |
| 20260506111633 | 51 | 75 | 1.0 | 2.0 | 0.00 | 0.00 | 0.00 | 99 | 1009.8 |
| 20260506111131 | 51 | 212 | 0.0 | 4.0 | 0.00 | 0.00 | 0.00 | 99 | 1009.7 |
| 20260506110628 | 51 | 355 | 0.0 | 2.0 | 0.00 | 0.00 | 0.00 | 99 | 1009.8 |
| 20260506110125 | 51 | 303 | 1.0 | 3.0 | 0.00 | 0.00 | 0.00 | 99 | 1009.7 |
| 20260506105622 | 50 | 299 | 0.0 | 3.0 | 0.00 | 0.00 | 0.00 | 99 | 1009.6 |
| 20260506105119 | 50 | 136 | 0.0 | 4.0 | 0.00 | 0.00 | 0.00 | 99 | 1009.4 |
| 20260506104617 | 50 | 69 | 2.0 | 3.0 | 0.00 | 0.00 | 0.00 | 99 | 1009.3 |
| 20260506104114 | 50 | 292 | 1.0 | 5.0 | 0.00 | 0.00 | 0.00 | 99 | 1009.2 |
| 20260506103612 | 50 | 315 | 1.0 | 2.0 | 0.00 | 0.00 | 0.00 | 99 | 1009.3 |
| 20260506103108 | 50 | 180 | 0.0 | 5.0 | 0.00 | 0.00 | 0.00 | 99 | 1009.3 |
| 20260506102607 | 50 | 45 | 0.0 | 3.0 | 0.00 | 0.00 | 0.00 | 99 | 1009.2 |
| 20260506102104 | 50 | 17 | 0.0 | 2.0 | 0.00 | 0.00 | 0.00 | 99 | 1009.1 |
| 20260506101600 | 50 | 92 | 1.0 | 2.0 | 0.00 | 0.00 | 0.00 | 99 | 1009.1 |
| 20260506101057 | 50 | 75 | 0.0 | 2.0 | 0.00 | 0.00 | 0.00 | 99 | 1008.9 |
| 20260506100555 | 50 | 56 | 1.0 | 2.0 | 0.00 | 0.00 | 0.00 | 99 | 1008.9 |
| 20260506100053 | 50 | 89 | 0.0 | 2.0 | 0.00 | 0.00 | 0.00 | 99 | 1009.0 |
| 20260506095552 | 50 | 249 | 0.0 | 2.0 | 0.00 | 0.00 | 0.00 | 99 | 1008.9 |
| 20260506095048 | 50 | 29 | 0.0 | 2.0 | 0.00 | 0.00 | 0.00 | 99 | 1008.8 |
| 20260506094545 | 51 | 123 | 2.0 | 3.0 | 0.00 | 0.00 | 0.00 | 99 | 1008.7 |
| 20260506094043 | 51 | 157 | 2.0 | 3.0 | 0.00 | 0.00 | 0.00 | 99 | 1008.9 |
| 20260506093541 | 51 | 63 | 1.0 | 2.0 | 0.00 | 0.00 | 0.00 | 99 | 1008.9 |
| 20260506093038 | 51 | 89 | 0.0 | 3.0 | 0.00 | 0.00 | 0.00 | 99 | 1008.8 |
| 20260506092536 | 51 | 115 | 2.0 | 2.0 | 0.00 | 0.00 | 0.00 | 99 | 1008.8 |
| 20260506092033 | 51 | 217 | 0.0 | 3.0 | 0.00 | 0.00 | 0.00 | 99 | 1008.7 |
| 20260506091531 | 51 | 102 | 0.0 | 1.0 | 0.00 | 0.00 | 0.00 | 99 | 1008.7 |
| 20260506091028 | 51 | 166 | 0.0 | 2.0 | 0.00 | 0.00 | 0.00 | 99 | 1008.8 |
| 20260506090526 | 51 | 191 | 0.0 | 2.0 | 0.00 | 0.00 | 0.00 | 98 | 1008.6 |
| 20260506090022 | 51 | 104 | 0.0 | 3.0 | 0.00 | 0.00 | 0.00 | 98 | 1008.4 |
| 20260506085519 | 51 | 68 | 0.0 | 2.0 | 0.00 | 0.00 | 0.00 | 98 | 1008.5 |
| 20260506085015 | 51 | 106 | 1.0 | 2.0 | 0.00 | 0.00 | 0.00 | 98 | 1008.5 |
| 20260506084512 | 51 | 143 | 2.0 | 3.0 | 0.00 | 0.00 | 0.00 | 98 | 1008.3 |
| 20260506084008 | 51 | 138 | 2.0 | 2.0 | 0.00 | 0.00 | 0.00 | 98 | 1008.4 |
| 20260506083506 | 51 | 120 | 2.0 | 2.0 | 0.00 | 0.00 | 0.00 | 97 | 1008.5 |
| 20260506083003 | 51 | 142 | 0.0 | 2.0 | 0.00 | 0.00 | 0.00 | 97 | 1008.4 |
| 20260506082500 | 51 | 120 | 2.0 | 2.0 | 0.00 | 0.00 | 0.00 | 97 | 1008.3 |
| 20260506081955 | 51 | 82 | 2.0 | 2.0 | 0.00 | 0.00 | 0.00 | 97 | 1008.2 |
| 20260506081454 | 51 | 103 | 0.0 | 2.0 | 0.00 | 0.00 | 0.00 | 97 | 1008.2 |
| 20260506080951 | 52 | 123 | 0.0 | 2.0 | 0.00 | 0.00 | 0.00 | 96 | 1008.2 |
| 20260506080448 | 52 | 80 | 0.0 | 2.0 | 0.00 | 0.00 | 0.00 | 96 | 1008.2 |
| 20260506073432 | 53 | 108 | 1.0 | 2.0 | 0.00 | 0.00 | 0.00 | 94 | 1008.3 |
| 20260506072929 | 53 | 204 | 0.0 | 2.0 | 0.00 | 0.00 | 0.00 | 93 | 1008.3 |
| 20260506072426 | 54 | 329 | 0.0 | 2.0 | 0.00 | 0.00 | 0.00 | 92 | 1008.3 |
| 20260506071924 | 54 | 154 | 0.0 | 2.0 | 0.00 | 0.00 | 0.00 | 92 | 1008.3 |
| 20260506071422 | 54 | 284 | 0.0 | 2.0 | 0.00 | 0.00 | 0.00 | 91 | 1008.2 |
| 20260506070918 | 55 | 297 | 0.0 | 2.0 | 0.00 | 0.00 | 0.00 | 91 | 1008.1 |
| 20260506070415 | 55 | 145 | 1.0 | 3.0 | 0.00 | 0.00 | 0.00 | 91 | 1008.3 |
| 20260506062353 | 56 | 187 | 1.0 | 3.0 | 0.00 | 0.00 | 0.00 | 90 | 1007.9 |
| 20260506061848 | 56 | 128 | 2.0 | 3.0 | 0.00 | 0.00 | 0.00 | 89 | 1007.7 |
| 20260506061345 | 56 | 58 | 0.0 | 3.0 | 0.00 | 0.00 | 0.00 | 90 | 1007.9 |
| 20260506060843 | 56 | 119 | 2.0 | 3.0 | 0.00 | 0.00 | 0.00 | 89 | 1007.9 |
| 20260506060341 | 56 | 309 | 0.0 | 2.0 | 0.00 | 0.00 | 0.00 | 89 | 1007.8 |